Location: Bach
(48.3467°N, 14.1689°E)
Time: 16:43:39
(UTC+00:00)

Daily predictions for brighter satellites

Satellite Brightness Start Highest point End
(mag) Time Altitude Azimuth Time Altitude Azimuth Time Altitude Azimuth
NOSS 3-1 (A) 4.5 16:14:48 10° NW 16:21:26 40° NNE 16:29:07 10° E
COSMOS 2455 2.9 16:18:10 10° SSW 16:24:11 83° ESE 16:30:16 10° NE
SeaSat 1 3.3 16:20:34 10° NNE 16:25:20 49° NW 16:30:03 10° SW
Cosmos 158 Rocket 4.2 16:20:17 10° NNW 16:25:34 54° ENE 16:30:50 10° SE
Cosmos 1626 3.9 16:22:36 10° SW 16:25:59 33° WNW 16:29:23 10° N
CZ-4C R/B 3.7 16:21:54 10° W 16:26:37 28° NNW 16:32:11 10° NE
ATLAS 2AS CENTAUR R/B 4.0 16:20:13 10° W 16:27:30 38° NNW 16:34:35 10° NE
SMAP 3.2 16:24:52 10° SSE 16:29:32 83° WSW 16:34:13 10° NNW
Meteor 2-1 Rocket 4.4 16:25:25 10° N 16:30:48 49° ENE 16:36:07 10° SSE
Cosmos 1833 Rocket 3.8 16:26:50 10° N 16:31:21 24° NE 16:35:50 10° E
Meteor 2-10 Rocket 3.5 16:26:11 10° N 16:31:40 76° ENE 16:36:53 10° SSE
CREW DRAGON DEMO-1 DEB 3.7 16:28:56 10° WNW 16:31:45 47° SSW 16:34:32 10° SE
Cosmos 2228 4.0 16:29:01 10° NNW 16:33:10 51° W 16:37:20 10° S
Cosmos 2279 Rocket 4.2 16:27:26 10° N 16:33:44 80° W 16:39:58 10° S
COSMOS 2406 4.1 16:29:44 10° NNW 16:34:42 28° NE 16:39:38 10° ESE
NOAA 12 4.5 16:32:33 10° S 16:37:46 71° WSW 16:43:02 10° NNW
TELKOM 3 2.8 16:36:11 10° W 16:38:23 72° NNW 16:40:25 13° ENE
Landsat 5 3.7 16:36:28 10° N 16:40:21 67° WNW 16:44:09 10° SSW
USA 290 4.3 16:40:54 10° NNE 16:41:56 11° NE 16:42:10 11° NE
H-2A R/B 2.1 16:37:47 10° NNE 16:42:14 82° ESE 16:46:33 10° SSW
Lacrosse 5 2.7 16:37:23 10° WNW 16:42:18 54° SW 16:47:12 10° SSE
Cosmos 1703 4.3 16:39:22 10° SE 16:42:36 25° E 16:45:51 10° NNE
Cosmos 2082 Rocket 3.6 16:40:04 10° N 16:44:09 19° NE 16:47:47 11° E
Cosmos 1844 3.8 16:39:20 10° S 16:44:53 59° ESE 16:50:32 10° NE
CZ-3B R/B 1.7 16:46:18 10° NW 16:48:35 53° NNE 16:54:14 10° ESE
YAOGAN 1 3.5 16:44:57 10° ESE 16:48:35 27° ENE 16:52:14 10° N
Aureole 3 Rocket 3.8 16:47:07 10° NNE 16:49:25 18° ENE 16:51:57 10° ESE
Cosmos 1892 Rocket 3.7 16:45:10 10° SSW 16:49:29 75° W 16:53:51 10° N
Iridium 4 Rocket 4.3 16:44:55 10° NNE 16:49:44 30° ENE 16:54:12 10° SE
Okean O Rocket 2.0 16:46:18 10° S 16:50:43 69° WSW 16:55:08 10° NNW
Cosmos 1844 Rocket 2.7 16:45:05 10° SSW 16:50:45 78° ESE 16:56:25 10° NNE
USA 234 3.9 16:44:56 10° ENE 16:50:55 42° N 16:57:00 10° WNW
Aureole 3 2.7 16:47:56 10° N 16:51:08 53° ENE 16:54:03 10° SSE
SJ 16-02 1.3 16:48:29 10° SSW 16:52:52 77° ESE 16:57:17 10° NNE
Cosmos 405 4.2 16:51:43 10° NNE 16:54:32 21° ENE 16:57:19 10° ESE
Okean-O 3.3 16:53:00 10° SE 16:56:59 33° ENE 17:00:59 10° N
Cosmos 923 Rocket 4.0 16:54:05 10° NNW 16:59:28 88° ENE 17:04:46 10° SSE
Cosmos 1812 Rocket 3.9 16:56:02 10° N 17:00:13 40° ENE 17:04:19 10° SE
ISS -3.7 16:58:26 10° WSW 17:01:49 72° NNW 17:04:02 20° ENE
Cosmos 1898 Rocket 3.9 16:57:48 10° S 17:02:42 41° ESE 17:07:36 10° NE
NOSS 2-1 (E) 3.7 17:00:49 10° S 17:03:50 32° ESE 17:05:28 21° ENE
Cosmos 1680 Rocket 3.4 16:59:40 10° NNW 17:04:56 77° ENE 17:10:08 10° SSE
Aureole 2 Rocket 3.6 17:02:44 10° SW 17:05:37 36° WNW 17:08:32 10° N
CZ-4 R/B 4.4 17:02:35 10° SSE 17:06:41 63° ENE 17:10:48 10° N
SKYMED 2 3.6 17:02:55 10° NNE 17:07:15 61° E 17:11:32 10° S
ATLAS 5 CENTAUR R/B 3.5 17:07:41 10° WNW 17:11:01 21° NNW 17:14:44 10° NNE
Cosmos 2278 Rocket 3.2 17:08:42 10° SSE 17:13:11 25° ESE 17:15:21 20° ENE
CSL-04 Rocket 4.2 17:09:27 10° SE 17:14:22 36° ENE 17:19:20 10° N
CSL-04 DEB 4.4 17:10:13 10° NNE 17:14:24 86° WNW 17:18:27 10° SSW
Meteor 2-13 Rocket 4.5 17:09:52 10° S 17:15:59 89° W 17:22:12 10° N
SJ-11-01 4.5 17:15:33 10° SE 17:20:01 46° ENE 17:24:30 10° N
Helios 1A Rocket 3.3 17:17:07 10° SE 17:21:00 41° ENE 17:24:56 10° N
Cosmos 1092 Rocket 3.9 17:15:08 10° S 17:21:14 66° E 17:27:19 10° NNE
H-2A R/B 2.1 17:16:40 10° SE 17:21:34 55° ENE 17:26:38 10° N
Cosmos 1328 3.9 17:19:53 10° S 17:23:46 53° E 17:27:40 10° NNE
Cosmos 44 3.3 17:19:34 10° SSW 17:24:23 80° SE 17:28:09 19° NE
IRS-1C Rocket 4.1 17:21:20 10° SSE 17:26:35 90° SW 17:31:53 10° NNW
SL-08 RB Rocket 4.4 17:25:36 25° E 17:26:58 30° ENE 17:30:51 10° N
Cosmos 1937 Rocket 3.7 17:24:57 10° S 17:30:04 52° ESE 17:33:59 17° NE
ERS-2 2.0 17:28:51 18° NNE 17:31:27 62° ESE 17:35:02 10° S
NOAA 15 4.5 17:27:07 10° SSE 17:32:21 73° ENE 17:37:38 10° N
X-37B 1.3 17:29:49 10° WSW 17:32:54 46° S 17:33:45 35° SE
Nadezhda 4 Rocket 4.4 17:27:07 10° SSW 17:33:18 67° W 17:39:28 10° N
Meteor 1-11 4.4 17:27:56 10° SSE 17:33:22 47° E 17:38:44 10° NNE
Cosmos 1340 2.5 17:30:10 10° S 17:33:53 73° E 17:36:50 16° NNE
Cosmos 1818 4.4 17:32:19 10° WSW 17:37:35 48° NW 17:42:02 14° NNE
CZ-2D R/B 4.1 17:33:50 10° S 17:37:35 51° W 17:41:21 10° NNW
Cosmos 1455 3.9 17:34:06 10° NNW 17:37:37 36° W 17:41:09 10° SSW
NOSS 3-1 (C) 4.2 17:30:14 10° NW 17:37:41 81° SW 17:46:21 10° SSE
Cosmos 1626 Rocket 3.9 17:33:51 10° SSW 17:38:13 67° WNW 17:42:39 10° N
CZ-4B R/B 2.5 17:37:48 10° N 17:41:00 43° WNW 17:44:07 10° SW
Meteor 2-19 Rocket 4.5 17:35:03 10° SSE 17:41:02 55° E 17:47:02 10° NNE
Cosmos 1689 Rocket 2.7 17:44:45 41° S 17:44:45 41° S 17:46:46 10° S
ARGOS 3.1 17:39:16 10° SSE 17:44:32 63° ENE 17:49:52 10° N
CZ-2C R/B 3.9 17:44:53 10° S 17:50:11 56° W 17:55:48 10° NNW
NOSS 2-1 (C) 3.1 17:49:38 10° SW 17:52:55 68° NW 17:53:29 55° N
CZ-2C R/B 3.0 17:51:10 32° NE 17:53:04 42° E 17:58:22 10° SSE
COSMO-SKYMED 1 3.6 17:51:08 10° N 17:55:17 45° WNW 17:59:25 10° SW
MOS 1 Rocket 3.7 17:51:21 10° N 17:55:33 55° WNW 17:59:46 10° SSW
USA 229 DEB 4.0 17:50:10 10° NW 17:57:28 81° SW 18:05:11 10° SSE
USA 229 3.9 17:50:16 10° NW 17:57:34 82° SW 18:05:17 10° SE
CZ-4 R/B 2.1 17:54:31 10° S 17:58:30 53° W 18:02:26 10° NNW
NOSS 2-1 (D) 3.3 17:55:35 10° SW 17:58:51 59° NW 17:59:15 54° NNW
Cosmos 990 Rocket 4.4 17:54:26 10° SW 17:59:35 61° WNW 18:04:09 13° NNE
SAR-Lupe-4 3.7 17:59:25 39° N 18:00:37 73° WNW 18:04:10 10° SSW
Meteor 2-15 4.4 17:55:00 10° N 18:01:12 88° E 18:07:21 10° S
Cosmos 1758 Rocket 3.5 17:58:37 10° S 18:03:04 89° W 18:06:26 18° N
Cosmos 2344 4.3 17:54:03 10° NW 18:03:19 89° WSW 18:16:21 10° SE
Cosmos 1417 Rocket 4.4 18:02:05 10° N 18:08:19 72° E 18:14:35 10° SSE
Cosmos 2026 Rocket 4.1 18:03:03 10° SSW 18:09:10 74° W 18:15:26 10° N
Cosmos-2242 3.1 18:04:57 10° NNW 18:09:15 76° W 18:13:32 10° S
CSL-04 Debris 4.1 18:04:03 10° SSE 18:09:26 84° WSW 18:14:52 10° NNW
Cosmos 1553 Rocket 3.9 18:05:33 10° N 18:12:00 86° E 18:18:20 10° S
Meteor 1-27 4.0 18:06:26 10° N 18:12:05 81° E 18:17:39 10° SSE
NOSS 3-1 (A) 4.2 18:05:35 10° NW 18:13:04 78° SW 18:21:27 11° SSE
Cosmos 1833 Rocket 2.8 18:10:16 10° NNW 18:15:53 76° WSW 18:20:05 18° SSE
USA 290 4.2 18:13:32 10° NNW 18:14:58 24° NW 18:14:58 24° NW
CZ-4C R/B 4.1 18:12:38 10° NW 18:17:19 22° N 18:19:07 20° NNE
COSMOS 2406 3.6 18:13:44 10° NNW 18:19:28 64° WSW 18:25:08 10° SSE
ATLAS 2AS CENTAUR R/B 4.3 18:14:28 10° NW 18:20:44 25° N 18:23:33 20° NNE
Ariane Rocket 4.4 18:23:27 25° N 18:23:27 25° N 18:25:43 10° N
YAOGAN 1 4.1 18:20:35 10° SSW 18:24:34 36° W 18:28:34 10° NNW
Cosmos 2082 Rocket 2.0 18:23:26 10° NNW 18:29:12 80° ENE 18:29:43 72° ESE
Cosmos 1655 Rocket 3.8 18:24:08 10° S 18:30:16 67° E 18:36:28 10° NNE
SJ 16-02 4.1 18:29:20 10° W 18:32:01 16° NW 18:34:43 10° NNW
USA 234 3.5 18:32:17 47° NE 18:33:14 50° NNE 18:39:31 10° NW
Cosmos 1346 Rocket 4.2 18:31:36 10° SSW 18:34:01 34° SW 18:34:01 34° SW
Cosmos 1825 Rocket 4.2 18:32:13 10° SSW 18:36:30 55° WNW 18:36:57 52° NW
S3M 3.8 18:30:34 10° N 18:36:42 89° W 18:42:02 14° S
ISS -1.2 18:35:38 10° WNW 18:37:00 21° WNW 18:37:00 21° WNW
Cosmos 2278 Rocket 2.6 18:51:14 10° SW 18:56:50 61° WNW 18:57:16 59° NW
ATLAS 5 CENTAUR R/B 4.2 18:54:48 10° NNW 18:56:39 14° N 18:56:39 14° N
USA 281 4.3 19:03:27 31° N 19:03:27 31° N 19:07:10 10° NNW
H-2A R/B 4.3 18:57:27 10° SW 19:01:22 22° W 19:05:23 10° NW
CZ-2C R/B 4.1 19:32:39 34° NW 19:33:16 35° WNW 19:38:17 10° SW
CZ-4C R/B 4.5 20:01:46 10° NW 20:04:18 22° NNW 20:04:18 22° NNW
ATLAS 2AS CENTAUR R/B 4.5 20:07:09 10° NW 20:10:59 26° NNW 20:10:59 26° NNW
